East Lindsay
DateTemperatureDew Point
08/31 - 02:30 PM95.3°57.6°
08/31 - 02:15 PM94.1°56.9°
08/31 - 02:00 PM93.8°56.0°
08/31 - 01:45 PM93.6°56.5°
08/31 - 01:30 PM92.3°56.3°
08/31 - 01:15 PM91.2°56.3°
08/31 - 01:00 PM91.3°56.2°
08/31 - 12:45 PM90.5°55.7°
08/31 - 12:30 PM89.7°58.7°
08/31 - 12:15 PM88.7°57.5°
08/31 - 12:00 PM88.1°57.9°
08/31 - 11:45 AM87.0°58.5°
08/31 - 11:30 AM86.1°58.0°
08/31 - 11:15 AM85.1°58.3°
08/31 - 11:00 AM84.0°59.0°
08/31 - 10:45 AM82.4°58.3°
08/31 - 10:30 AM81.7°58.3°
08/31 - 10:15 AM80.7°57.0°
08/31 - 10:00 AM79.5°55.8°
08/31 - 09:45 AM78.9°55.2°
08/31 - 09:30 AM77.9°54.0°
08/31 - 09:15 AM77.3°54.3°
08/31 - 09:00 AM76.1°53.4°
08/31 - 08:45 AM74.7°54.1°
08/31 - 08:30 AM72.7°53.2°
08/31 - 08:15 AM71.9°52.9°
08/31 - 08:00 AM71.3°53.7°
08/31 - 07:45 AM69.4°54.7°
08/31 - 07:30 AM65.8°55.3°
08/31 - 07:15 AM62.3°54.9°
08/31 - 07:00 AM59.8°53.6°
08/31 - 06:45 AM59.0°53.7°
08/31 - 06:30 AM58.3°51.7°
08/31 - 06:15 AM58.2°51.6°
08/31 - 06:00 AM58.4°51.6°
08/31 - 05:45 AM58.3°51.0°
08/31 - 05:30 AM58.4°51.2°
08/31 - 05:15 AM58.8°51.4°
08/31 - 05:00 AM59.3°51.6°
08/31 - 04:45 AM59.8°51.4°
08/31 - 04:30 AM60.2°51.5°
08/31 - 04:15 AM60.6°51.4°
08/31 - 04:00 AM60.4°51.4°
08/31 - 03:45 AM60.2°51.7°
08/31 - 03:30 AM59.7°52.3°
08/31 - 03:15 AM59.1°53.7°
08/31 - 03:00 AM59.6°55.3°
08/31 - 02:45 AM60.2°55.5°
08/31 - 02:30 AM60.4°55.3°
08/31 - 02:15 AM61.3°56.2°
08/31 - 02:00 AM62.0°55.1°
08/31 - 01:45 AM61.9°54.8°
08/31 - 01:30 AM62.5°55.4°
08/31 - 01:15 AM63.2°55.2°
08/31 - 01:00 AM63.9°56.7°
08/31 - 12:45 AM64.9°56.3°
08/31 - 12:30 AM65.4°57.1°
08/31 - 12:15 AM65.8°58.7°
08/31 - 12:00 AM64.5°60.0°
08/30 - 11:45 PM64.4°61.3°
08/30 - 11:30 PM64.7°61.9°
08/30 - 11:15 PM64.6°62.3°
08/30 - 11:00 PM64.3°62.9°
08/30 - 10:45 PM65.0°63.7°
08/30 - 10:30 PM65.5°64.2°
08/30 - 10:15 PM65.9°64.5°
08/30 - 10:00 PM66.2°64.5°
08/30 - 09:45 PM66.6°64.7°
08/30 - 09:30 PM67.2°64.8°
08/30 - 09:15 PM67.8°64.8°
08/30 - 09:00 PM68.4°64.7°
08/30 - 08:45 PM69.5°64.9°
08/30 - 08:30 PM70.7°66.1°
08/30 - 08:15 PM72.1°66.3°
08/30 - 08:00 PM73.5°67.0°
08/30 - 07:45 PM75.8°66.6°
08/30 - 07:30 PM78.0°65.0°
08/30 - 07:15 PM80.3°63.1°
08/30 - 07:00 PM82.7°64.2°
08/30 - 06:45 PM85.6°64.3°
08/30 - 06:30 PM89.1°63.4°
08/30 - 06:15 PM92.7°62.1°
08/30 - 06:00 PM94.6°60.9°
08/30 - 05:45 PM95.0°59.4°
08/30 - 05:30 PM95.6°58.3°
08/30 - 05:15 PM96.3°59.0°
08/30 - 05:00 PM97.0°59.3°
08/30 - 04:45 PM96.4°58.3°
08/30 - 04:30 PM96.0°57.8°
08/30 - 04:15 PM95.8°57.5°
08/30 - 04:00 PM95.7°58.1°
08/30 - 03:45 PM96.8°58.4°
08/30 - 03:30 PM96.3°57.9°
08/30 - 03:15 PM96.7°57.6°
08/30 - 03:00 PM96.0°57.8°
08/30 - 02:45 PM95.2°57.1°
08/30 - 02:30 PM94.6°57.7°
08/30 - 02:15 PM94.1°56.3°
08/30 - 02:00 PM93.7°57.5°
08/30 - 01:45 PM93.5°57.5°
08/30 - 01:30 PM93.1°57.3°
08/30 - 01:15 PM92.1°57.4°
08/30 - 01:00 PM91.2°57.2°
08/30 - 12:45 PM90.5°57.6°
08/30 - 12:30 PM89.2°57.6°
08/30 - 12:15 PM87.8°57.4°
08/30 - 12:00 PM86.2°57.6°
08/30 - 11:45 AM84.4°56.8°
08/30 - 11:30 AM83.8°57.2°
08/30 - 11:15 AM82.4°56.9°
08/30 - 11:00 AM81.5°57.1°
08/30 - 10:45 AM80.9°57.6°
08/30 - 10:30 AM79.4°57.4°
08/30 - 10:15 AM78.3°57.7°
08/30 - 10:00 AM77.6°58.3°
08/30 - 09:45 AM76.1°58.1°
08/30 - 09:30 AM75.4°58.5°
08/30 - 09:15 AM73.8°58.2°
08/30 - 09:00 AM73.2°57.8°
08/30 - 08:45 AM72.1°58.0°
08/30 - 08:30 AM71.1°57.9°
08/30 - 08:15 AM69.8°57.9°
08/30 - 08:00 AM68.2°58.1°
08/30 - 07:45 AM67.1°58.0°
08/30 - 07:30 AM65.8°58.0°
08/30 - 07:15 AM64.0°57.9°
08/30 - 07:00 AM62.7°58.3°
08/30 - 06:45 AM61.1°59.2°
08/30 - 06:30 AM60.1°59.7°
08/30 - 06:15 AM59.8°59.6°
08/30 - 06:00 AM59.5°59.5°
08/30 - 05:45 AM59.5°59.4°
08/30 - 05:30 AM59.8°59.6°
08/30 - 05:15 AM60.0°59.8°
08/30 - 05:00 AM60.3°60.1°
08/30 - 04:45 AM60.6°60.4°
08/30 - 04:30 AM60.9°60.6°
08/30 - 04:15 AM61.1°60.7°
08/30 - 04:00 AM61.5°61.0°
08/30 - 03:45 AM61.9°61.3°
08/30 - 03:30 AM62.2°61.5°
08/30 - 03:15 AM62.6°61.8°
08/30 - 03:00 AM63.0°62.2°
08/30 - 02:45 AM63.5°62.5°
08/30 - 02:30 AM63.5°62.4°
08/30 - 02:15 AM63.9°62.7°
08/30 - 02:00 AM64.5°63.4°
08/30 - 01:45 AM65.1°63.6°
08/30 - 01:30 AM65.6°63.8°
08/30 - 01:15 AM66.1°63.8°
08/30 - 01:00 AM66.3°63.5°
08/30 - 12:45 AM66.6°63.6°
08/30 - 12:30 AM67.2°64.3°
08/30 - 12:15 AM67.7°64.2°
08/30 - 12:00 AM67.9°63.9°
08/29 - 11:45 PM68.3°63.9°
08/29 - 11:30 PM68.1°64.0°
08/29 - 11:15 PM68.2°64.5°
08/29 - 11:00 PM68.4°65.0°
08/29 - 10:45 PM68.9°65.5°
08/29 - 10:30 PM69.4°65.6°
08/29 - 10:15 PM70.1°65.6°
08/29 - 10:00 PM70.4°65.3°
08/29 - 09:45 PM70.2°65.4°
08/29 - 09:30 PM70.7°66.0°
08/29 - 09:15 PM71.6°66.4°
08/29 - 09:00 PM72.0°66.2°
08/29 - 08:45 PM72.6°67.0°
08/29 - 08:30 PM73.3°67.5°
08/29 - 08:15 PM74.1°68.1°
08/29 - 08:00 PM74.6°68.6°
08/29 - 07:45 PM75.8°70.4°
08/29 - 07:30 PM77.4°69.7°
08/29 - 07:15 PM79.9°69.4°
08/29 - 07:00 PM82.2°69.6°
08/29 - 06:45 PM85.5°69.7°
08/29 - 06:30 PM89.0°68.6°
08/29 - 06:15 PM92.4°68.6°
08/29 - 06:00 PM94.3°65.6°
08/29 - 05:45 PM94.8°63.9°
08/29 - 05:30 PM93.8°63.1°
08/29 - 05:15 PM93.7°62.5°
08/29 - 05:00 PM94.1°63.0°
08/29 - 04:45 PM94.7°62.3°
08/29 - 04:30 PM95.0°62.8°
08/29 - 04:15 PM94.3°63.9°
08/29 - 04:00 PM94.5°63.6°
08/29 - 03:45 PM95.3°63.7°
08/29 - 03:30 PM96.2°63.4°
08/29 - 03:15 PM95.2°63.6°